Regional Weather Roundup
Issued by NWS Portland, ME

Home | Current Version | Previous Version | Text Only | Print | Product List | Glossary On
Versions: 1 2 3 4 5 6 7 8 9 10 11 12 13 14 15 16 17 18 19 20 21 22 23 24 25 26 27 28 29 30 31 32 33 34 35 36 37 38 39 40 41 42 43 44 45 46 47 48 49 50
000
ASUS41 KGYX 220110
RWRGYX
WEATHER ROUNDUP FOR MAINE AND NEW HAMPSHIRE
NATIONAL WEATHER SERVICE GRAY ME
900 PM EDT SUN SEP 21 2014

MEZ002-005-006-010-012-015-018-020-021-024-026-027-029-220200-
MAINE

CITY           SKY/WX    TMP DP  RH WIND       PRES   REMARKS
PORTLAND       FOG       63  62  97 N3        29.64F VSB 1/4
SANFORD        CLOUDY    64  61  88 CALM      29.63F VSB 1/4
BAR HARBOR     CLOUDY    63  63 100 E3        29.67F VSB 1/4
WISCASSET      FOG       64  63  96 CALM      29.65F VSB 1/2
ROCKLAND       CLOUDY    61  59  94 E6        29.65F VSB<1/4
FRYEBURG       CLOUDY    67  66  97 CALM      29.64F
LEWISTONAUBURN CLOUDY    64  63  94 CALM      29.65F VSB 1/2
AUGUSTA        FOG       63  63 100 SE5       29.66F VSB 1/4
WATERVILLE     CLOUDY    64  63  94 CALM      29.61F VSB 1/2
BANGOR         FOG       65  64  97 S5        29.67F VSB 1/2
GREENVILLE       N/A     63  63 100 VRB6      29.67F
MILLINOCKET    CLOUDY    67  65  93 CALM      29.69F
HOULTON        CLOUDY    66  63  90 S6        29.68F
PRESQUE ISLE   CLOUDY    66  57  72 E5        29.67F
FRENCHVILLE    CLOUDY    63  60  90 S13       29.66F
CARIBOU        CLOUDY    65  60  84 S12       29.66F
$$

NHZ002-005-008-009-011-012-014-220200-
NEW HAMPSHIRE

CITY           SKY/WX    TMP DP  RH WIND       PRES   REMARKS
PORTSMOUTH     FOG       65  64  97 E3        29.60F VSB 1/8
ROCHESTER      FOG       66  65  96 SE3       29.61F VSB 1/4
NASHUA         CLOUDY    70  69  96 CALM      29.61F
MANCHESTER     CLOUDY    69  66  90 N3        29.59F
CONCORD        CLOUDY    69  67  93 E3        29.61F
LACONIA        CLOUDY    68  64  88 CALM      29.61F
PLYMOUTH       LGT RAIN  68  68 100 CALM      29.62F
BERLIN         CLOUDY    67  64  90 CALM      29.63F
WHITEFIELD     CLOUDY    63  59  87 CALM      29.62F
JAFFREY        CLOUDY    65  64  97 CALM      29.65F FOG
LEBANON        MOCLDY    67  64  90 CALM      29.59F
MT WASHINGTON  LGT RAIN  52  52 100 SW28        N/A  VSB 0
$$

VTZ005-007-008-220200-
VERMONT

CITY           SKY/WX    TMP DP  RH WIND       PRES   REMARKS
ST JOHNSBURY     N/A     67  63  87 MISG      29.58F
MONTPELIER     CLOUDY    69  63  81 S10       29.63F
BURLINGTON     LGT RAIN  72  61  68 S3        29.55S
$$

MAZ007-012-024-CTZ003-RIZ002-NYZ038-NYZ072-220200-
SOUTHERN NEW ENGLAND AND NY

CITY           SKY/WX    TMP DP  RH WIND       PRES   REMARKS
BOSTON         LGT RAIN  70  68  94 SW6       29.60F
WORCESTER      FOG       67  66  97 SW3       29.64S VSB 1/2
NANTUCKET      CLOUDY    66  64  93 NE7       29.57F
PROVIDENCE     CLOUDY    69  68  96 S3        29.61S FOG
HARTFORD       CLOUDY    71  68  90 S5        29.60S
ALBANY         MOCLDY    74  65  73 S10       29.57F
NEW YORK CITY  PTCLDY    73  67  81 S7        29.61F
$$

ANZ081-ANZ082-ANZ150-NHZ014-MEZ023>029-220200-
COASTAL MARINE OBSERVATIONS

STATION/POSITION TIME  TEMP    WIND        PRES    WAVE
                       AIR SEA DIR/SP/G            HT/PER
                 (UTC) (F)     (DEG/KT/KT) (MB)    (FT/S)
MOUNT DESERT ROC 0100   59                 1004.0F
MATINICUS ROCK   0100          110/ 12/ 12 1003.4F
PORTLAND WX BUOY 0050   61 59  120/  6/  8 1002.8F   2/11
WELLS            0000   63 57   80/  3/  4 1002.8F
ISLE OF SHOALS   0100   63     120/  7/  8 1002.0F
JEFFREYS LEDGE   0021      60                N/A     2/ 6
CASHES LEDGE BUO 0050   64 63              1002.5F   3/ 5
$$

.............KEY..............
   WCI - WIND CHILL
   TC  - TEMPERATURE IN CELSIUS
   VSB - VISIBILITY IN MILES
   HX  - HEAT INDEX
   FAIR- INDICATES FEW OR NO CLOUDS BELOW 12,000 FT, WITH NO
         SIGNIFICANT WEATHER AND/OR OBSTRUCTIONS TO VISIBILITY.




USA.gov is the U.S. government's official web portal to all federal, state and local government web resources and services.